Dewpoint
51 51 51 52 51 51 51 50 49 49 48 46 45 47 43 43 44 48 42 33 29 30 30 43 36 33 34 35 33 33 33 32 31 29 28 25 28 35 23 23 22 23 22 23 21 26 27 30 27 27 28 33 27 28 29 27 29 34 36 28 29 63 33 31 34 41 37 30 32 31 34 29 28 34 29 26 26 21 20 25 30 23 29 22 25 26 27
51 51 51 51 51 50 50 50 50 49 49 47 47 44 41 39 38 37 35 38 30 23 26 28 32 30 27 27 23 25 26 27 27 27 28 25 25 31 23 24 23 24 25 21 21 31 25 28 28 29 33 27 30 31 35 39 39 34 38 29 31 31 35 33 28 28 31 29 31 31 39 33 33 33 33 25 22 24 32 37 36 25 30 28 23 17 30
51 51 51 51 51 50 50 49 49 49 50 49 46 43 43 42 43 41 41 46 23 17 23 26 25 28 24 18 17 17 27 31 29 28 28 30 26 26 26 25 22 21 22 25 21 31 24 28 24 26 32 32 42 36 38 39 39 50 49 60 33 36 40 30 25 23 21 22 21 25 31 36 35 39 36 33 21 26 28 26 30 20 32 31 28 28 32
52 51 51 51 51 50 50 50 49 49 50 50 46 45 45 41 36 38 40 40 24 26 27 21 22 25 29 24 22 24 24 28 29 29 28 28 34 24 26 26 23 25 24 26 27 27 29 24 28 33 31 30 29 38 39 39 46 58 63 56 47 43 43 42 35 27 25 26 33 41 43 37 32 31 31 27 28 22 32 34 27 21 30 28 30 32 36
52 51 51 51 51 50 50 49 49 49 49 50 47 46 46 46 43 43 40 42 39 39 34 36 34 31 27 26 32 26 25 25 23 31 29 29 26 27 26 27 25 27 24 27 25 34 29 34 31 29 27 34 29 37 40 44 52 62 56 53 40 41 33 39 41 39 35 36 41 38 41 32 33 31 28 28 27 29 29 29 24 35 30 25 35 38 38
52 51 50 50 51 50 50 50 49 49 49 50 49 47 49 42 45 45 46 40 36 42 40 39 34 30 28 32 33 32 28 25 27 28 31 29 27 24 29 27 26 24 22 30 29 35 37 38 32 37 36 33 31 33 33 40 56 46 32 48 39 38 31 33 34 36 40 38 35 33 30 30 33 31 28 28 28 33 33 35 30 34 27 26 32 37 37
52 50 50 50 50 50 50 50 49 49 49 50 48 47 48 46 45 45 43 43 44 45 44 42 35 28 28 39 42 35 31 26 26 30 29 29 30 26 30 28 25 25 27 30 32 40 29 31 41 35 36 34 38 33 34 37 40 31 34 33 44 32 34 37 29 32 31 34 35 29 35 32 29 29 27 27 28 25 25 31 35 33 34 32 32 38 37
51 51 51 50 51 51 50 50 49 49 48 49 48 47 46 46 44 41 42 43 42 43 42 39 34 28 35 33 35 32 31 27 27 27 27 32 28 27 26 27 25 24 29 35 28 36 36 33 34 43 38 36 42 37 38 36 35 31 34 35 40 32 30 45 36 35 37 36 35 35 36 35 29 27 26 28 27 26 27 30 32 39 36 38 37 39 40
50 50 50 51 51 51 50 50 49 48 48 47 46 46 47 47 47 45 43 41 42 46 39 37 36 31 29 28 30 29 24 25 24 24 27 27 29 28 25 26 26 32 30 38 38 38 39 41 39 40 39 33 39 36 36 34 34 35 34 36 38 34 34 43 40 31 34 36 35 33 32 30 31 33 31 28 28 30 34 33 34 32 33 37 39 35 39
50 50 50 51 51 51 51 50 49 49 48 46 46 45 47 46 48 48 46 42 52 41 38 38 34 30 34 37 36 36 34 35 33 23 29 29 27 26 26 26 37 42 38 39 38 35 38 34 34 32 35 38 35 38 34 33 36 38 41 39 33 37 38 35 35 30 35 36 37 33 32 30 29 33 32 35 33 32 31 34 42 41 37 36 30 32 43
50 50 50 51 51 51 51 51 50 49 48 46 46 45 46 45 45 46 46 43 44 42 39 39 39 41 35 35 35 36 36 37 37 32 34 28 24 27 29 33 37 37 39 35 35 37 40 36 34 33 32 30 30 29 29 28 33 37 42 42 44 40 40 36 39 30 35 37 37 36 32 28 29 38 37 36 30 29 28 29 39 40 45 38 38 42 46
50 50 50 50 50 50 51 51 51 50 48 48 47 46 46 45 45 47 45 42 42 44 42 40 40 37 35 34 34 35 36 37 37 39 35 29 30 29 32 35 37 38 34 35 41 39 40 41 39 38 36 35 33 33 31 30 29 44 39 41 41 43 42 39 39 34 32 36 39 32 28 29 37 38 35 34 33 34 30 31 39 42 47 46 45 46 46
50 50 50 49 50 51 51 51 51 50 49 48 47 45 46 45 45 46 46 44 43 43 41 41 39 36 35 34 34 36 37 38 38 41 38 36 32 31 33 35 36 32 32 37 37 43 40 41 44 46 41 36 38 35 33 31 29 30 26 37 38 40 37 38 33 38 34 32 32 27 29 37 43 38 36 36 38 35 38 38 40 44 43 46 45 46 47
49 49 49 49 50 50 51 52 51 50 50 49 47 46 45 44 44 45 44 42 43 44 43 39 38 35 34 35 36 36 37 38 40 41 40 40 37 32 35 39 38 33 34 42 47 44 41 41 36 39 36 38 39 36 36 34 32 32 30 34 30 36 40 32 27 35 27 33 32 31 37 33 36 34 33 32 34 35 32 29 37 47 46 46 46 47 48
49 49 49 49 49 49 50 52 52 51 51 49 47 46 45 45 43 44 46 44 42 44 41 38 37 35 36 36 35 36 37 39 41 41 43 41 37 40 42 44 45 43 37 39 40 45 39 40 36 35 37 32 28 33 35 34 34 32 30 28 33 35 30 35 27 31 34 29 27 29 26 26 33 43 39 42 40 43 41 39 37 46 44 46 45 45 46
49 49 49 49 49 49 52 52 51 51 51 49 47 46 45 46 44 45 44 44 41 33 38 40 38 38 37 37 36 37 38 40 41 43 42 43 42 43 44 44 44 43 33 47 46 42 41 36 35 33 32 34 35 33 32 29 32 34 31 31 31 38 35 36 26 32 30 29 24 26 25 29 34 32 31 38 38 41 46 38 35 41 46 46 45 45 46
50 49 49 49 49 49 50 51 51 51 51 50 47 46 45 45 44 43 42 44 43 41 43 41 41 40 38 37 37 38 40 40 41 42 42 43 43 44 43 42 44 40 43 42 40 37 33 35 37 36 38 35 33 32 32 33 33 29 29 31 31 37 37 31 32 33 33 31 28 26 31 29 37 42 42 36 38 38 35 28 32 41 46 46 46 45 46
50 49 48 48 48 48 49 49 50 51 50 50 48 46 45 46 45 44 44 43 41 41 43 43 41 39 38 39 39 40 40 42 42 46 44 43 46 41 39 42 43 43 42 40 41 35 35 33 29 30 30 38 35 30 28 31 28 28 28 32 32 35 36 31 28 28 35 34 30 29 32 39 43 43 37 40 39 35 30 28 33 44 46 48 46 46 47
49 49 48 48 48 48 48 48 49 51 51 50 48 45 44 45 45 45 43 44 42 38 42 42 42 39 39 42 43 40 40 39 42 40 38 39 44 39 40 42 46 45 45 39 36 37 32 35 36 35 30 34 34 31 35 30 30 36 35 29 31 33 37 36 36 31 31 31 28 29 33 36 38 42 42 43 36 31 31 38 45 47 47 47 45 45 50
49 49 49 48 48 48 49 49 49 49 51 51 48 44 44 45 45 45 42 41 42 41 40 39 39 37 41 41 40 40 40 40 42 39 38 37 40 40 45 41 47 45 45 42 36 36 30 31 33 33 29 30 35 38 30 33 36 30 31 35 30 30 31 31 30 33 32 33 29 28 25 35 42 40 42 46 38 37 41 47 50 49 45 47 47 45 47
50 50 49 50 50 50 49 49 49 49 50 52 49 45 45 45 44 44 44 43 42 40 41 43 43 42 42 41 41 41 40 39 39 38 40 39 40 42 36 42 43 43 44 45 41 41 35 33 34 32 34 30 33 30 27 29 30 35 31 35 32 41 29 32 32 36 29 30 27 28 33 37 39 41 37 42 45 42 48 46 42 48 47 45 46 48 49
50 50 50 49 49 49 49 49 49 50 50 52 50 45 42 44 44 45 45 46 42 42 43 43 42 42 42 42 42 42 41 40 39 39 38 37 42 40 42 43 41 46 47 46 46 44 46 46 44 41 34 34 37 30 37 26 26 33 41 36 28 37 34 35 28 39 32 33 36 39 43 41 41 46 44 44 45 46 48 43 42 42 42 46 44 47 51
49 50 50 49 49 49 49 49 50 50 50 51 49 45 43 44 44 47 45 42 43 44 44 42 42 42 43 43 43 43 42 42 41 40 39 37 37 42 40 43 42 47 49 49 44 43 43 44 44 45 43 42 38 35 36 32 29 35 30 33 32 40 39 46 40 37 47 45 41 40 45 45 42 43 48 43 45 48 46 43 43 46 47 47 43 47 48
50 50 50 49 48 48 49 49 49 51 51 51 50 46 45 46 45 45 45 44 41 39 40 43 41 40 40 38 38 38 37 37 43 41 40 39 36 36 42 45 46 46 48 48 48 43 43 43 46 45 40 42 40 36 32 32 33 35 34 34 34 38 36 37 34 43 34 30 41 40 42 43 41 37 39 41 42 47 48 47 48 46 49 50 51 47 48
50 50 50 50 50 49 49 49 49 50 52 51 50 50 48 45 46 46 44 41 39 37 35 37 38 39 39 39 39 39 38 42 43 42 41 39 38 35 33 41 46 42 37 37 46 44 47 42 44 44 41 43 39 32 37 36 31 36 31 32 37 33 39 37 41 36 31 35 40 44 41 42 44 43 42 42 43 44 47 49 48 48 49 51 50 47 46
50 50 50 50 50 50 49 49 50 52 52 51 50 46 45 45 46 47 46 46 44 42 37 36 37 39 40 39 39 40 41 40 39 39 40 39 37 36 36 36 35 43 43 47 46 39 40 43 45 44 42 41 44 33 33 35 30 39 33 34 36 33 40 34 34 36 40 38 38 40 38 41 43 45 46 46 45 45 46 46 45 45 44 45 46 47 46
50 50 50 50 50 50 50 50 50 51 51 51 49 47 47 47 47 46 44 45 41 37 37 37 38 39 39 38 38 38 38 38 38 37 36 35 35 35 35 35 35 38 38 39 43 40 42 42 42 40 42 42 40 39 37 36 32 30 30 32 36 32 34 36 34 32 32 31 32 37 32 37 40 44 45 46 46 44 45 46 45 46 46 47 46 48 50
50 50 50 50 50 50 50 50 50 51 51 51 50 49 48 47 48 47 47 46 43 38 38 38 37 38 39 36 36 36 36 38 37 36 35 35 35 33 31 33 35 31 38 36 36 38 36 31 29 40 41 42 40 38 37 37 34 28 33 31 37 30 37 33 29 31 28 37 42 45 41 40 43 43 46 48 47 44 43 43 44 47 48 48 47 47 47
50 50 50 50 50 50 50 50 50 51 51 48 47 47 47 47 47 47 46 46 45 42 39 39 39 37 33 32 37 36 37 37 36 35 35 34 35 35 36 35 34 33 32 32 32 37 38 38 40 36 38 45 38 36 32 33 32 29 32 32 31 31 38 29 32 34 36 38 43 45 43 41 42 46 47 46 49 45 43 44 45 45 49 50 49 46 45
50 50 50 50 50 50 50 49 50 51 50 46 45 43 40 42 46 47 46 45 46 46 40 38 35 35 38 37 36 36 36 37 36 35 34 33 32 32 34 35 36 42 39 33 36 31 34 35 36 34 33 42 35 38 33 30 29 30 37 36 35 37 36 42 43 34 39 41 45 46 43 43 44 44 45 47 52 44 42 42 46 48 50 53 50 52 51
50 50 50 50 50 50 50 50 50 50 49 45 43 39 35 34 42 47 48 46 45 45 42 41 38 39 38 38 37 36 36 37 36 36 35 34 32 30 31 34 35 36 35 38 35 35 38 33 32 38 39 37 41 38 35 31 31 30 31 30 30 36 34 36 41 38 41 43 44 46 45 44 47 42 42 43 45 46 47 47 53 60 52 50 48 50 51
50 50 50 50 51 50 50 50 50 50 46 45 44 41 38 44 47 46 47 46 45 44 41 39 37 37 35 37 38 38 36 36 36 37 39 37 34 33 32 32 34 34 38 34 37 35 35 38 32 34 34 44 44 36 35 33 31 32 36 34 38 40 41 43 37 39 40 43 40 38 40 42 44 38 40 44 45 44 43 44 45 50 54 49 49 50 52
50 50 51 51 50 50 50 50 51 50 46 47 49 48 48 48 48 47 47 47 44 42 43 41 36 36 35 35 36 36 36 37 35 36 36 37 34 36 35 36 36 34 46 38 35 34 38 36 40 33 34 38 36 37 35 33 32 32 32 36 33 31 36 42 39 41 41 41 35 33 35 37 41 42 43 45 46 45 46 44 45 46 45 45 46 50 52
50 49 50 50 50 50 49 51 51 50 49 46 43 43 43 46 45 46 45 48 44 43 45 41 36 34 33 36 35 36 37 34 34 36 32 37 38 33 35 34 37 35 35 33 37 37 40 38 36 34 35 36 39 34 32 33 35 35 34 33 33 33 35 39 42 42 43 42 44 39 37 42 45 47 46 46 46 49 49 46 45 44 46 46 46 48 52
50 50 50 50 49 49 49 50 47 47 44 43 43 43 43 46 46 46 47 45 39 38 38 40 38 35 32 33 33 34 36 34 36 37 34 34 39 30 33 33 37 34 39 36 37 35 34 36 41 36 34 36 35 32 31 31 34 36 36 34 34 37 36 34 37 42 41 42 43 45 46 45 44 44 45 46 47 47 46 47 47 47 47 48 49 50 51
49 50 50 50 49 48 47 48 46 44 42 42 43 46 49 50 50 47 46 46 42 39 39 38 38 35 34 31 31 35 36 33 34 35 37 37 33 34 34 32 31 34 40 33 32 34 32 42 36 32 35 33 33 32 32 33 33 34 35 33 33 33 34 32 40 43 45 46 45 47 47 47 46 47 48 48 47 47 47 47 48 48 48 49 50 50 50
48 49 49 49 48 46 43 43 46 45 42 42 44 46 48 47 49 48 47 44 45 43 40 40 38 36 37 36 37 37 37 35 39 38 40 39 39 37 31 34 30 36 34 34 35 33 35 43 33 32 32 32 33 34 35 37 34 32 33 33 37 39 45 40 43 44 45 47 48 48 48 47 48 47 45 46 47 47 46 46 47 47 47 47 49 48 49
49 49 49 46 44 40 39 40 42 43 47 46 46 46 43 44 41 42 44 41 41 42 40 38 35 36 38 36 34 38 37 36 38 36 40 41 38 37 39 37 35 38 31 33 32 36 37 38 35 32 32 33 35 33 33 34 37 37 38 40 39 40 42 42 44 44 46 46 46 47 48 46 45 46 45 45 46 46 47 47 47 47 47 49 49 50 51
48 48 45 43 40 37 37 42 49 50 45 46 46 41 39 40 38 38 39 39 41 39 40 38 36 36 35 34 34 37 36 36 34 35 33 40 40 39 43 39 42 39 32 32 35 36 32 33 33 34 32 33 33 33 34 34 34 35 35 36 39 41 45 44 40 41 41 42 43 45 44 43 43 46 46 46 47 47 47 47 47 47 47 48 49 51 50
47 43 42 41 39 40 50 50 53 48 46 43 42 39 36 40 36 32 39 35 35 39 39 35 37 37 36 35 34 35 38 35 32 32 34 42 43 37 43 40 43 39 31 32 36 37 31 32 33 32 30 32 32 34 36 35 35 33 34 38 41 39 43 41 43 42 43 46 47 48 47 46 46 46 45 46 46 46 46 47 47 47 47 50 52 49 49
45 43 41 39 40 41 46 50 50 47 42 38 40 40 37 32 37 38 36 34 32 33 37 35 36 36 37 36 36 34 38 39 42 46 43 38 48 47 39 34 44 37 36 33 36 36 42 38 33 31 30 34 36 35 35 36 36 37 34 43 46 45 43 45 46 47 47 46 46 46 46 46 46 46 46 46 45 46 46 46 46 46 46 46 47 49 50
44 43 45 47 47 49 47 46 44 42 40 41 36 32 34 35 36 35 34 29 30 33 33 35 34 34 35 36 36 36 37 38 41 46 43 39 43 42 40 42 43 36 32 35 40 40 37 32 30 29 34 36 36 38 36 33 36 36 38 45 45 43 44 46 46 47 47 46 46 45 45 46 47 48 48 47 47 47 48 48 47 46 47 49 51 50 50
47 47 48 47 46 42 40 35 38 38 32 33 32 30 33 29 29 28 31 34 34 32 33 34 35 36 40 39 37 37 42 48 45 44 42 39 43 45 41 36 35 31 36 46 43 42 33 31 30 31 34 36 39 38 40 44 47 48 48 48 46 46 47 47 47 47 47 47 47 47 46 46 46 47 48 47 48 49 51 52 50 48 48 49 50 51 51
48 47 44 43 40 41 38 29 40 36 33 33 31 28 30 28 29 30 28 29 33 33 34 35 38 36 37 46 41 42 44 46 47 46 44 45 41 37 39 35 37 41 41 44 42 35 34 32 31 35 40 46 48 49 48 47 47 48 48 48 47 47 47 47 47 47 48 49 49 49 49 48 49 50 49 48 47 47 49 50 53 49 50 48 49 49 51
42 39 37 36 33 37 32 29 36 33 30 31 32 30 30 27 27 28 27 31 30 35 41 44 44 42 39 45 45 45 44 40 48 41 36 41 37 39 37 36 42 44 40 38 38 38 35 34 42 45 47 48 49 50 49 50 48 47 48 48 48 50 48 47 46 47 47 47 47 47 48 48 48 48 49 50 50 49 49 49 50 50 48 49 50 50 51
40 35 34 32 31 34 31 29 33 30 33 33 32 31 29 29 29 30 32 44 40 43 43 44 44 44 43 44 40 40 45 44 42 40 43 41 36 33 40 46 45 39 36 38 36 34 34 37 46 47 48 50 50 51 51 52 51 49 48 48 49 49 49 49 49 48 48 49 49 49 49 49 48 48 49 51 51 52 51 52 52 50 51 50 50 50 51
38 40 36 33 30 33 34 29 30 33 34 34 33 32 30 30 31 30 32 43 41 45 45 46 45 46 42 43 43 43 45 45 41 42 43 35 35 39 44 41 35 37 35 34 35 36 40 44 46 49 51 50 51 51 51 52 53 51 49 50 51 51 51 50 50 49 50 50 50 50 50 49 50 50 51 52 53 54 55 53 53 53 52 51 52 52 52
34 37 36 29 27 29 29 30 33 33 33 33 33 33 32 37 38 38 41 42 45 45 43 44 42 42 42 47 45 41 43 44 40 40 43 42 41 39 34 36 36 38 37 36 38 42 42 46 46 47 51 52 52 48 50 52 52 52 51 50 50 49 48 48 49 50 49 49 49 49 50 50 50 50 51 52 53 53 54 54 54 53 53 52 52 52 51
41 35 32 29 31 29 30 33 32 30 31 31 31 31 31 34 37 41 44 46 45 45 46 44 45 43 39 43 41 41 36 43 36 35 42 40 35 32 33 32 34 32 37 37 40 43 44 47 50 50 51 52 52 52 52 51 52 50 49 47 47 47 48 48 49 49 49 49 49 49 50 51 51 52 53 52 52 52 53 53 53 53 52 52 52 52 52
36 34 35 32 31 32 34 33 32 30 32 34 35 36 39 38 38 39 45 44 44 44 46 46 46 41 40 39 33 35 35 42 40 38 39 36 36 39 37 34 36 36 40 43 45 47 48 50 50 50 51 51 51 52 50 52 51 49 48 48 48 48 48 48 49 49 49 49 49 50 50 50 50 51 51 51 52 53 53 53 53 53 52 52 52 52 52
39 35 33 35 32 31 33 31 31 31 32 32 33 35 38 39 39 39 46 44 44 43 42 39 37 37 35 36 34 32 33 43 41 38 38 37 40 39 35 34 40 44 45 46 47 49 50 51 51 50 51 51 52 52 51 50 49 49 48 48 47 47 47 48 48 49 49 50 51 54 50 50 50 50 52 53 53 53 54 54 53 52 53 52 52 52 52
31 30 30 35 36 35 34 34 34 33 32 33 34 37 41 39 41 42 48 45 44 40 38 42 40 35 34 32 35 40 43 41 36 40 38 41 45 40 40 41 43 46 47 48 49 50 51 52 52 52 52 53 52 51 51 50 48 48 48 47 47 47 47 47 48 49 49 49 50 50 50 51 52 51 52 52 51 50 50 50 53 53 53 52 51 51 51